Location: Unspecified
(0.0000°N, 0.0000°E)
Time: 06:57:50
(UTC+00:00)

Hubble Space Telescope - Pass Details

Date: 25 July 2021
Orbit: 535 x 539 km, 28.5° (Epoch: 31 July)

Event Time Altitude Azimuth Distance (km) Brightness Sun altitude
Exits shadow 05:14:16 14° 217° (SW) 1,545 2.6 -12.3°
Maximum altitude 05:14:51 14° 208° (SSW) 1,527 2.6 -12.2°
Drops below altitude 10° 05:17:06 10° 174° (S) 1,783 3.3 -11.6°
Sets 05:20:17 0° 149° (SSE) 2,676 4.5 -10.9°
